Regional Weather Roundup
Issued by NWS

Home | Current Version | Previous Version | Graphics & Text | Print | Product List | Glossary On
Versions: 1 2 3 4 5 6 7 8 9 10 11 12 13 14 15 16 17 18 19 20 21 22 23 24 25 26 27 28 29 30 31 32 33 34 35 36 37 38 39 40 41 42 43 44 45 46 47 48 49 50
255
ASUS43 KIND 230659
RWRIN

WEATHER ROUNDUP FOR INDIANA
NATIONAL WEATHER SERVICE INDIANAPOLIS IN
200 AM EST THU NOV 23 2017

NOTE: "FAIR" INDICATES FEW OR NO CLOUDS BELOW 12,000 FEET WITH NO
SIGNIFICANT WEATHER AND/OR OBSTRUCTIONS TO VISIBILITY.

* - STATION DOES NOT REPORT WEATHER SUCH AS PRECIPITATION OR FOG.

+ - STATION NOT QUALITY CONTROLLED BY THE NATIONAL WEATHER SERVICE.
    USE DATA WITH CAUTION...ESPECIALLY DEWPOINT AND RELATIVE
    HUMIDITY OBSERVATIONS.

INZ001>003-010>013-019-020-230800-
NORTHWEST INDIANA

CITY           SKY/WX    TMP DP  RH WIND       PRES   REMARKS
KNOX *+        CLOUDY    30  21  69 S5        30.18F WCI  25
LA PORTE +     CLOUDY    29  21  70 SW6       30.18S WCI  23
MICHIGAN CITY+ CLOUDY    30  19  64 SW6       30.18F WCI  24
MONTICELLO +   CLOUDY    29  24  81 S3        30.20F
RENSSELAER +   CLOUDY    32  23  69 S7        30.19F WCI  26

$$

LMZ046-743>745-230800-
SOUTHERN LAKE MICHIGAN

STATION/POSITION TIME  TEMP    WIND        PRES    WAVE
                       AIR SEA DIR/SP/G            HT
                 (UTC) (F)     (DEG/KT/KT) (MB)    (FT)
BURNS HARBOR     0605   31     210/  8/ 12 1022.7
MICHIGAN CITY    0630   31     180/  7/  8   N/A

$$

INZ004-005-014>016-021>024-230800-
NORTH CENTRAL INDIANA

CITY           SKY/WX    TMP DP  RH WIND       PRES   REMARKS
GOSHEN         CLOUDY    29  21  72 SW6       30.17F WCI  23
PERU/GRISSOM   CLOUDY    29  27  92 SW5       30.19F WCI  24
SOUTH BEND     CLOUDY    28  21  75 SW6       30.18F WCI  22
WARSAW +       CLOUDY    30  21  69 SW3       30.18F

$$

INZ006>009-017-018-025>027-230800-
NORTHEAST INDIANA

CITY           SKY/WX    TMP DP  RH WIND       PRES   REMARKS
AUBURN +       CLOUDY    30  23  74 SW3       30.18F
FORT WAYNE     CLOUDY    30  26  85 S6        30.19F WCI  24
KENDALLVILLE + CLOUDY    30  23  75 SW6       30.17F WCI  24

$$

INZ028-029-035-036-043>045-051>053-230800-
WEST CENTRAL INDIANA

CITY           SKY/WX    TMP DP  RH WIND       PRES   REMARKS
CRAWFORDSVL +  CLOUDY    25  25 100 MISG        N/A
GREENCASTLE +  MOCLDY    28  23  80 CALM      30.21S
LAFAYETTE      CLOUDY    28  27  96 CALM      30.21F
TERRE HAUTE    MOCLDY    29  24  82 CALM      30.22F

$$

INZ030>032-037>040-046>048-054>057-064-065-230800-
CENTRAL INDIANA

CITY           SKY/WX    TMP DP  RH WIND       PRES   REMARKS
FRANKFORT +    CLOUDY    31  27  86 CALM      30.21F
GREENWOOD *+   PTCLDY    28  25  86 CALM      30.21F
INDIANAPOLIS   CLOUDY    30  22  72 CALM      30.20F
-EAGLE CREEK   PTCLDY    27  23  85 CALM      30.19F FOG
KOKOMO +       CLOUDY    30  25  81 SW5       30.20F WCI  25
MT COMFORT *+  CLOUDY    23  23 100 CALM      30.20F
SHELBYVILLE    PTCLDY    25  20  81 CALM      30.20F

$$

INZ033-034-041-042-049-050-058-059-230800-
EAST CENTRAL INDIANA

CITY           SKY/WX    TMP DP  RH WIND       PRES   REMARKS
MUNCIE         PTCLDY    30  22  72 S5        30.19F WCI  25
RICHMOND +     CLOUDY    23  23 100 SE6       30.20F WCI  16

$$

INZ060-061-067>069-081>083-085>088-230800-
SOUTHWEST INDIANA

CITY           SKY/WX    TMP DP  RH WIND       PRES   REMARKS
EVANSVILLE     PTCLDY    28  25  88 CALM      30.25S
HUNTINGBURG +  CLOUDY    23  21  92 NW3       30.23F

$$

INZ062-063-066-070>080-084-089>092-230800-
SOUTH CENTRAL AND SOUTHEAST INDIANA

CITY           SKY/WX    TMP DP  RH WIND       PRES   REMARKS
BLOOMINGTON    MOCLDY    26  22  84 CALM      30.20F
MADISON *+     CLOUDY    27  25  93 CALM      30.23S
SEYMOUR +      PTCLDY    25  21  86 CALM      30.23F

$$





USA.gov is the U.S. government's official web portal to all federal, state and local government web resources and services.